CARTOSAT-2B

Last updated on Wed Jul 02 2025 00:02:29 GMT+0000 (Coordinated Universal Time)

1 36795U 10035A 25182.62021176 .00000522 00000+0 77946-4 0 9997 2 36795 97.8077 236.7161 0010475 245.7464 114.2654 14.78729600808042
UTC large
Height (km)
Speed (km/s)
/
Latitude / Longitude
Inclination (degrees)
Orbital Period (minutes)
Azimuth
Elevation
Range (km)
Doppler Factor

Next 0 passes for location: London (51.5072 / 0.1276)

Sorry there are no passes over London.